METEOSAT-11 (MSG-4)

Last updated on Sun Apr 12 2026 00:02:26 GMT+0000 (Coordinated Universal Time)

1 40732U 15034A 26101.30864281 .00000068 00000+0 00000+0 0 9993 2 40732 3.0344 71.4575 0001748 288.6212 319.9846 1.00278078 6548
UTC large
Height (km)
Speed (km/s)
/
Latitude / Longitude
Inclination (degrees)
Orbital Period (minutes)
Azimuth
Elevation
Range (km)
Doppler Factor

Next 0 passes for location: London (51.5072 / 0.1276)

Sorry there are no passes over London.